Time,TemperatureF,DewpointF,PressureIn,WindDirection,WindDirectionDegrees,WindSpeedMPH,WindSpeedGustMPH,Humidity,HourlyPrecipIn,Conditions,Clouds,dailyrainin,SolarRadiationWatts/m^2,SoftwareType,DateUTC
2013-05-05 00:04:00,41.3,38.0,30.28,SSW,201,0.0,0.0,88,0.00,,,0.00,0,Wunderground v.1.15,2013-05-05 04:04:00,
2013-05-05 00:09:00,41.2,37.9,30.28,SSW,201,0.0,0.0,88,0.00,,,0.00,0,Wunderground v.1.15,2013-05-05 04:09:00,
2013-05-05 00:14:00,41.0,37.7,30.28,SSW,201,0.0,0.0,88,0.00,,,0.00,0,Wunderground v.1.15,2013-05-05 04:14:00,
2013-05-05 00:19:00,41.0,38.0,30.28,SSW,201,0.0,0.0,89,0.00,,,0.00,0,Wunderground v.1.15,2013-05-05 04:19:00,
2013-05-05 00:24:00,40.9,37.9,30.28,SSW,201,0.0,0.0,89,0.00,,,0.00,0,Wunderground v.1.15,2013-05-05 04:24:00,
2013-05-05 00:29:00,40.7,37.4,30.28,SSW,201,0.0,0.0,88,0.00,,,0.00,0,Wunderground v.1.15,2013-05-05 04:29:00,
2013-05-05 00:39:00,40.2,37.2,30.28,SSW,201,0.0,0.0,89,0.00,,,0.00,0,Wunderground v.1.15,2013-05-05 04:39:00,
2013-05-05 00:44:00,40.0,37.0,30.28,SSW,201,0.0,0.0,89,0.00,,,0.00,0,Wunderground v.1.15,2013-05-05 04:44:00,
2013-05-05 00:49:00,39.8,36.8,30.28,SSW,201,0.0,0.0,89,0.00,,,0.00,0,Wunderground v.1.15,2013-05-05 04:49:00,
2013-05-05 00:59:00,39.6,36.9,30.28,SSW,201,0.0,0.0,90,0.00,,,0.00,0,Wunderground v.1.15,2013-05-05 04:59:00,
2013-05-05 01:04:00,39.5,36.8,30.28,SSW,201,0.0,0.0,90,0.00,,,0.00,0,Wunderground v.1.15,2013-05-05 05:04:00,
2013-05-05 01:09:00,39.3,36.6,30.28,SSW,201,0.0,0.0,90,0.00,,,0.00,0,Wunderground v.1.15,2013-05-05 05:09:00,
2013-05-05 01:14:00,39.2,36.5,30.28,SSW,207,0.0,0.0,90,0.00,,,0.00,0,Wunderground v.1.15,2013-05-05 05:14:00,
2013-05-05 01:24:00,39.0,36.6,30.27,SSW,207,0.0,0.0,91,0.00,,,0.00,0,Wunderground v.1.15,2013-05-05 05:24:00,
2013-05-05 01:34:00,38.9,36.5,30.27,SSW,207,0.0,0.0,91,0.00,,,0.00,0,Wunderground v.1.15,2013-05-05 05:34:00,
2013-05-05 01:39:00,38.9,36.8,30.27,SSW,207,0.0,0.0,92,0.00,,,0.00,0,Wunderground v.1.15,2013-05-05 05:39:00,
2013-05-05 01:44:00,38.8,36.7,30.27,SSW,207,0.0,0.0,92,0.00,,,0.00,0,Wunderground v.1.15,2013-05-05 05:44:00,
2013-05-05 01:49:00,38.7,36.6,30.27,SSW,207,0.0,0.0,92,0.00,,,0.00,0,Wunderground v.1.15,2013-05-05 05:49:00,
2013-05-05 01:54:00,38.6,36.5,30.26,SSW,207,0.0,0.0,92,0.00,,,0.00,0,Wunderground v.1.15,2013-05-05 05:54:00,
2013-05-05 01:59:00,38.5,36.4,30.26,SSW,207,0.0,0.0,92,0.00,,,0.00,0,Wunderground v.1.15,2013-05-05 05:59:00,
2013-05-05 02:04:00,38.5,36.4,30.26,SSW,207,0.0,0.0,92,0.00,,,0.00,0,Wunderground v.1.15,2013-05-05 06:04:00,
2013-05-05 02:09:00,38.5,36.4,30.26,SSW,207,0.0,0.0,92,0.00,,,0.00,0,Wunderground v.1.15,2013-05-05 06:09:00,
2013-05-05 02:19:00,38.6,36.2,30.26,SSW,207,0.0,0.0,91,0.00,,,0.00,0,Wunderground v.1.15,2013-05-05 06:19:00,
2013-05-05 02:24:00,38.7,36.3,30.26,SSW,207,0.0,0.0,91,0.00,,,0.00,0,Wunderground v.1.15,2013-05-05 06:24:00,
2013-05-05 02:34:00,39.0,36.3,30.26,SSW,207,0.0,0.0,90,0.00,,,0.00,0,Wunderground v.1.15,2013-05-05 06:34:00,
2013-05-05 02:44:00,39.1,36.1,30.25,SSW,207,0.0,0.0,89,0.00,,,0.00,0,Wunderground v.1.15,2013-05-05 06:44:00,
2013-05-05 02:54:00,39.4,36.4,30.26,SSW,207,0.0,0.0,89,0.00,,,0.00,0,Wunderground v.1.15,2013-05-05 06:54:00,
2013-05-05 02:59:00,39.6,36.3,30.26,SW,215,0.0,0.0,88,0.00,,,0.00,0,Wunderground v.1.15,2013-05-05 06:59:00,
2013-05-05 03:09:00,39.9,36.6,30.26,SW,217,0.0,0.0,88,0.00,,,0.00,0,Wunderground v.1.15,2013-05-05 07:09:00,
2013-05-05 03:14:00,40.0,36.7,30.26,North,5,0.0,0.0,88,0.00,,,0.00,0,Wunderground v.1.15,2013-05-05 07:14:00,
2013-05-05 03:19:00,40.1,36.8,30.26,North,5,1.0,1.0,88,0.00,,,0.00,0,Wunderground v.1.15,2013-05-05 07:19:00,
2013-05-05 03:29:00,40.2,36.9,30.26,North,5,1.0,1.0,88,0.00,,,0.00,0,Wunderground v.1.15,2013-05-05 07:29:00,
2013-05-05 03:39:00,40.1,37.1,30.26,North,5,1.0,2.0,89,0.00,,,0.00,0,Wunderground v.1.15,2013-05-05 07:39:00,
2013-05-05 03:49:00,39.7,37.0,30.26,North,5,2.0,2.0,90,0.00,,,0.00,0,Wunderground v.1.15,2013-05-05 07:49:00,
2013-05-05 03:54:00,39.4,36.7,30.26,NE,39,1.0,2.0,90,0.00,,,0.00,0,Wunderground v.1.15,2013-05-05 07:54:00,
2013-05-05 03:59:00,39.2,36.5,30.26,NE,39,1.0,2.0,90,0.00,,,0.00,0,Wunderground v.1.15,2013-05-05 07:59:00,
2013-05-05 04:09:00,38.6,36.2,30.26,NE,49,2.0,2.0,91,0.00,,,0.00,0,Wunderground v.1.15,2013-05-05 08:09:00,
2013-05-05 04:14:00,38.4,36.3,30.26,NE,34,2.0,2.0,92,0.00,,,0.00,0,Wunderground v.1.15,2013-05-05 08:14:00,
2013-05-05 04:19:00,38.2,36.1,30.26,ENE,62,1.0,2.0,92,0.00,,,0.00,0,Wunderground v.1.15,2013-05-05 08:19:00,
2013-05-05 04:24:00,38.0,36.2,30.26,ENE,67,2.0,2.0,93,0.00,,,0.00,0,Wunderground v.1.15,2013-05-05 08:24:00,
2013-05-05 04:29:00,37.8,36.0,30.26,NNE,30,2.0,2.0,93,0.00,,,0.00,0,Wunderground v.1.15,2013-05-05 08:29:00,
2013-05-05 04:39:00,37.7,36.1,30.25,ENE,68,2.0,7.0,94,0.00,,,0.00,0,Wunderground v.1.15,2013-05-05 08:39:00,
2013-05-05 04:44:00,37.6,36.0,30.26,NE,50,2.0,2.0,94,0.00,,,0.00,0,Wunderground v.1.15,2013-05-05 08:44:00,
2013-05-05 04:49:00,37.5,35.9,30.26,East,87,1.0,2.0,94,0.00,,,0.00,0,Wunderground v.1.15,2013-05-05 08:49:00,
2013-05-05 04:54:00,37.4,35.8,30.26,East,84,2.0,6.0,94,0.00,,,0.00,0,Wunderground v.1.15,2013-05-05 08:54:00,
2013-05-05 04:59:00,37.3,36.0,30.26,SE,130,2.0,6.0,95,0.00,,,0.00,0,Wunderground v.1.15,2013-05-05 08:59:00,
2013-05-05 05:04:00,37.3,36.0,30.26,NE,38,1.0,1.0,95,0.00,,,0.00,0,Wunderground v.1.15,2013-05-05 09:04:00,
2013-05-05 05:09:00,37.2,35.9,30.26,NE,44,1.0,1.0,95,0.00,,,0.00,0,Wunderground v.1.15,2013-05-05 09:09:00,
2013-05-05 05:19:00,36.8,35.5,30.26,North,5,2.0,4.0,95,0.00,,,0.00,0,Wunderground v.1.15,2013-05-05 09:19:00,
2013-05-05 05:24:00,36.7,35.4,30.26,North,10,2.0,2.0,95,0.00,,,0.00,0,Wunderground v.1.15,2013-05-05 09:24:00,
2013-05-05 05:29:00,36.5,35.2,30.26,NNE,31,1.0,2.0,95,0.00,,,0.00,0,Wunderground v.1.15,2013-05-05 09:29:00,
2013-05-05 05:39:00,36.2,34.9,30.26,NNE,22,1.0,2.0,95,0.00,,,0.00,0,Wunderground v.1.15,2013-05-05 09:39:00,
2013-05-05 05:44:00,36.0,34.7,30.27,NNE,16,1.0,2.0,95,0.00,,,0.00,5,Wunderground v.1.15,2013-05-05 09:44:00,
2013-05-05 05:54:00,35.8,34.5,30.27,NNE,16,2.0,2.0,95,0.00,,,0.00,11,Wunderground v.1.15,2013-05-05 09:54:00,
2013-05-05 05:59:00,35.8,34.5,30.27,North,11,2.0,2.0,95,0.00,,,0.00,14,Wunderground v.1.15,2013-05-05 09:59:00,
2013-05-05 06:09:00,35.7,34.4,30.28,NNE,24,1.0,2.0,95,0.00,,,0.00,28,Wunderground v.1.15,2013-05-05 10:09:00,
2013-05-05 06:19:00,35.9,34.9,30.28,NE,42,1.0,2.0,96,0.00,,,0.00,51,Wunderground v.1.15,2013-05-05 10:19:00,
2013-05-05 06:24:00,36.1,34.8,30.28,NNE,33,2.0,2.0,95,0.00,,,0.00,60,Wunderground v.1.15,2013-05-05 10:24:00,
2013-05-05 06:29:00,36.3,35.0,30.27,North,5,2.0,2.0,95,0.00,,,0.00,67,Wunderground v.1.15,2013-05-05 10:29:00,
2013-05-05 06:34:00,36.6,35.3,30.28,NE,44,2.0,3.0,95,0.00,,,0.00,77,Wunderground v.1.15,2013-05-05 10:34:00,
2013-05-05 06:39:00,36.9,35.6,30.28,ENE,64,2.0,4.0,95,0.00,,,0.00,88,Wunderground v.1.15,2013-05-05 10:39:00,
2013-05-05 06:49:00,37.6,36.0,30.28,ENE,61,2.0,3.0,94,0.00,,,0.00,123,Wunderground v.1.15,2013-05-05 10:49:00,
2013-05-05 06:59:00,38.5,36.4,30.28,NE,48,3.0,4.0,92,0.00,,,0.00,155,Wunderground v.1.15,2013-05-05 10:59:00,
2013-05-05 07:04:00,39.0,36.3,30.28,NNE,28,2.0,2.0,90,0.00,,,0.00,162,Wunderground v.1.15,2013-05-05 11:04:00,
2013-05-05 07:09:00,39.5,36.5,30.28,NE,47,3.0,3.0,89,0.00,,,0.00,204,Wunderground v.1.15,2013-05-05 11:09:00,
2013-05-05 07:14:00,40.0,37.0,30.28,North,355,2.0,2.0,89,0.00,,,0.00,221,Wunderground v.1.15,2013-05-05 11:14:00,
2013-05-05 07:19:00,40.5,36.9,30.28,ENE,59,2.0,3.0,87,0.00,,,0.00,239,Wunderground v.1.15,2013-05-05 11:19:00,
2013-05-05 07:29:00,41.2,37.0,30.28,NE,51,3.0,4.0,85,0.00,,,0.00,269,Wunderground v.1.15,2013-05-05 11:29:00,
2013-05-05 07:34:00,41.7,37.8,30.28,NNE,20,2.0,3.0,86,0.00,,,0.00,285,Wunderground v.1.15,2013-05-05 11:34:00,
2013-05-05 07:39:00,42.3,38.4,30.29,ESE,105,2.0,4.0,86,0.00,,,0.00,299,Wunderground v.1.15,2013-05-05 11:39:00,
2013-05-05 07:44:00,42.8,38.0,30.29,SE,128,2.0,2.0,83,0.00,,,0.00,315,Wunderground v.1.15,2013-05-05 11:44:00,
2013-05-05 07:54:00,43.5,37.4,30.29,ESE,103,2.0,2.0,79,0.00,,,0.00,346,Wunderground v.1.15,2013-05-05 11:54:00,
2013-05-05 07:59:00,43.7,37.0,30.29,East,88,3.0,3.0,77,0.00,,,0.00,364,Wunderground v.1.15,2013-05-05 11:59:00,
2013-05-05 08:04:00,43.8,37.4,30.29,NNE,18,3.0,4.0,78,0.00,,,0.00,378,Wunderground v.1.15,2013-05-05 12:04:00,
2013-05-05 08:09:00,44.2,37.8,30.29,NE,50,3.0,6.0,78,0.00,,,0.00,397,Wunderground v.1.15,2013-05-05 12:09:00,
2013-05-05 08:19:00,44.9,37.1,30.29,East,88,3.0,6.0,74,0.00,,,0.00,425,Wunderground v.1.15,2013-05-05 12:19:00,
2013-05-05 08:24:00,45.2,38.1,30.29,ESE,105,3.0,4.0,76,0.00,,,0.00,443,Wunderground v.1.15,2013-05-05 12:24:00,
2013-05-05 08:34:00,45.8,38.3,30.30,East,89,3.0,5.0,75,0.00,,,0.00,475,Wunderground v.1.15,2013-05-05 12:34:00,
2013-05-05 08:39:00,46.4,38.2,30.29,East,80,3.0,5.0,73,0.00,,,0.00,489,Wunderground v.1.15,2013-05-05 12:39:00,
2013-05-05 08:44:00,46.8,38.2,30.29,ENE,69,3.0,3.0,72,0.00,,,0.00,503,Wunderground v.1.15,2013-05-05 12:44:00,
2013-05-05 08:49:00,47.1,38.2,30.29,NE,56,3.0,3.0,71,0.00,,,0.00,519,Wunderground v.1.15,2013-05-05 12:49:00,
2013-05-05 08:54:00,47.1,38.2,30.30,North,351,3.0,6.0,71,0.00,,,0.00,533,Wunderground v.1.15,2013-05-05 12:54:00,
2013-05-05 09:04:00,47.1,37.1,30.30,NE,51,3.0,3.0,68,0.00,,,0.00,563,Wunderground v.1.15,2013-05-05 13:04:00,
2013-05-05 09:09:00,47.4,37.7,30.29,ENE,75,3.0,3.0,69,0.00,,,0.00,578,Wunderground v.1.15,2013-05-05 13:09:00,
2013-05-05 09:19:00,47.4,37.4,30.29,NNE,22,4.0,4.0,68,0.00,,,0.00,608,Wunderground v.1.15,2013-05-05 13:19:00,
2013-05-05 09:24:00,48.8,37.9,30.29,East,80,3.0,3.0,66,0.00,,,0.00,621,Wunderground v.1.15,2013-05-05 13:24:00,
2013-05-05 09:29:00,48.6,37.0,30.29,ENE,73,3.0,3.0,64,0.00,,,0.00,633,Wunderground v.1.15,2013-05-05 13:29:00,
2013-05-05 09:34:00,48.7,37.5,30.29,ESE,121,3.0,3.0,65,0.00,,,0.00,647,Wunderground v.1.15,2013-05-05 13:34:00,
2013-05-05 09:44:00,50.2,38.9,30.29,NNE,28,3.0,3.0,65,0.00,,,0.00,673,Wunderground v.1.15,2013-05-05 13:44:00,
2013-05-05 09:54:00,50.6,39.3,30.29,SE,139,3.0,3.0,65,0.00,,,0.00,696,Wunderground v.1.15,2013-05-05 13:54:00,
2013-05-05 09:59:00,51.0,38.4,30.29,ENE,78,3.0,5.0,62,0.00,,,0.00,710,Wunderground v.1.15,2013-05-05 13:59:00,
2013-05-05 10:04:00,50.4,37.4,30.29,ENE,69,3.0,3.0,61,0.00,,,0.00,724,Wunderground v.1.15,2013-05-05 14:04:00,
2013-05-05 10:09:00,50.6,38.5,30.29,ENE,70,2.0,7.0,63,0.00,,,0.00,737,Wunderground v.1.15,2013-05-05 14:09:00,
2013-05-05 10:19:00,51.3,37.4,30.28,East,80,3.0,3.0,59,0.00,,,0.00,758,Wunderground v.1.15,2013-05-05 14:19:00,
2013-05-05 10:24:00,52.1,39.9,30.28,ENE,67,3.0,4.0,63,0.00,,,0.00,768,Wunderground v.1.15,2013-05-05 14:24:00,
2013-05-05 10:34:00,52.0,36.8,30.28,East,84,3.0,3.0,56,0.00,,,0.00,789,Wunderground v.1.15,2013-05-05 14:34:00,
2013-05-05 10:39:00,52.1,38.6,30.28,SSE,148,3.0,4.0,60,0.00,,,0.00,800,Wunderground v.1.15,2013-05-05 14:39:00,
2013-05-05 10:44:00,52.7,38.3,30.28,ENE,58,3.0,3.0,58,0.00,,,0.00,812,Wunderground v.1.15,2013-05-05 14:44:00,
2013-05-05 10:49:00,53.9,38.6,30.28,NNE,17,3.0,3.0,56,0.00,,,0.00,823,Wunderground v.1.15,2013-05-05 14:49:00,
2013-05-05 10:54:00,53.7,38.4,30.27,NNW,339,3.0,3.0,56,0.00,,,0.00,828,Wunderground v.1.15,2013-05-05 14:54:00,
2013-05-05 10:59:00,54.7,37.9,30.28,East,94,3.0,5.0,53,0.00,,,0.00,837,Wunderground v.1.15,2013-05-05 14:59:00,
2013-05-05 11:04:00,53.8,38.0,30.27,NNE,14,3.0,4.0,55,0.00,,,0.00,849,Wunderground v.1.15,2013-05-05 15:04:00,
2013-05-05 11:14:00,55.8,38.4,30.27,ENE,59,3.0,3.0,52,0.00,,,0.00,865,Wunderground v.1.15,2013-05-05 15:14:00,
2013-05-05 11:19:00,56.5,40.0,30.28,East,85,3.0,6.0,54,0.00,,,0.00,872,Wunderground v.1.15,2013-05-05 15:19:00,
2013-05-05 11:24:00,55.6,36.7,30.27,ESE,117,3.0,3.0,49,0.00,,,0.00,879,Wunderground v.1.15,2013-05-05 15:24:00,
2013-05-05 11:34:00,56.4,38.0,30.27,East,84,3.0,3.0,50,0.00,,,0.00,888,Wunderground v.1.15,2013-05-05 15:34:00,
2013-05-05 11:39:00,56.6,38.7,30.27,ESE,117,4.0,4.0,51,0.00,,,0.00,898,Wunderground v.1.15,2013-05-05 15:39:00,
2013-05-05 11:44:00,56.9,37.9,30.27,East,82,4.0,5.0,49,0.00,,,0.00,904,Wunderground v.1.15,2013-05-05 15:44:00,
2013-05-05 11:49:00,57.1,38.6,30.26,ENE,68,4.0,5.0,50,0.00,,,0.00,907,Wunderground v.1.15,2013-05-05 15:49:00,
2013-05-05 11:54:00,58.0,40.0,30.26,SE,132,4.0,4.0,51,0.00,,,0.00,918,Wunderground v.1.15,2013-05-05 15:54:00,
2013-05-05 11:59:00,58.4,38.2,30.27,SE,130,3.0,4.0,47,0.00,,,0.00,916,Wunderground v.1.15,2013-05-05 15:59:00,
2013-05-05 12:04:00,59.4,39.1,30.27,ESE,102,3.0,3.0,47,0.00,,,0.00,925,Wunderground v.1.15,2013-05-05 16:04:00,
2013-05-05 12:14:00,59.3,38.5,30.26,East,100,3.0,3.0,46,0.00,,,0.00,930,Wunderground v.1.15,2013-05-05 16:14:00,
2013-05-05 12:24:00,59.7,37.7,30.26,NE,51,3.0,3.0,44,0.00,,,0.00,933,Wunderground v.1.15,2013-05-05 16:24:00,
2013-05-05 12:29:00,60.2,38.8,30.26,ENE,58,3.0,5.0,45,0.00,,,0.00,937,Wunderground v.1.15,2013-05-05 16:29:00,
2013-05-05 12:39:00,60.7,39.8,30.25,South,174,2.0,3.0,46,0.00,,,0.00,942,Wunderground v.1.15,2013-05-05 16:39:00,
2013-05-05 12:44:00,60.0,36.8,30.25,ENE,64,2.0,2.0,42,0.00,,,0.00,942,Wunderground v.1.15,2013-05-05 16:44:00,
2013-05-05 12:49:00,62.2,37.6,30.25,ESE,103,2.0,4.0,40,0.00,,,0.00,949,Wunderground v.1.15,2013-05-05 16:49:00,
2013-05-05 12:54:00,60.6,36.8,30.25,ENE,73,2.0,3.0,41,0.00,,,0.00,942,Wunderground v.1.15,2013-05-05 16:54:00,
2013-05-05 13:04:00,61.5,37.6,30.25,ENE,76,3.0,4.0,41,0.00,,,0.00,946,Wunderground v.1.15,2013-05-05 17:04:00,
2013-05-05 13:09:00,62.4,38.4,30.25,East,98,3.0,6.0,41,0.00,,,0.00,939,Wunderground v.1.15,2013-05-05 17:09:00,
2013-05-05 13:19:00,60.9,36.4,30.25,ESE,109,3.0,4.0,40,0.00,,,0.00,937,Wunderground v.1.15,2013-05-05 17:19:00,
2013-05-05 13:24:00,61.1,37.8,30.24,ESE,113,3.0,4.0,42,0.00,,,0.00,939,Wunderground v.1.15,2013-05-05 17:24:00,
2013-05-05 13:29:00,62.9,36.9,30.25,NNE,26,3.0,4.0,38,0.00,,,0.00,937,Wunderground v.1.15,2013-05-05 17:29:00,
2013-05-05 13:34:00,62.2,34.9,30.25,ENE,75,4.0,4.0,36,0.00,,,0.00,932,Wunderground v.1.15,2013-05-05 17:34:00,
2013-05-05 13:39:00,61.7,35.1,30.25,SSE,155,3.0,4.0,37,0.00,,,0.00,930,Wunderground v.1.15,2013-05-05 17:39:00,
2013-05-05 13:44:00,62.7,37.4,30.25,South,184,3.0,3.0,39,0.00,,,0.00,926,Wunderground v.1.15,2013-05-05 17:44:00,
2013-05-05 13:49:00,63.6,36.1,30.25,ENE,74,4.0,4.0,36,0.00,,,0.00,925,Wunderground v.1.15,2013-05-05 17:49:00,
2013-05-05 13:54:00,63.4,37.3,30.25,NE,50,4.0,4.0,38,0.00,,,0.00,912,Wunderground v.1.15,2013-05-05 17:54:00,
2013-05-05 13:59:00,63.8,37.0,30.25,ESE,117,4.0,5.0,37,0.00,,,0.00,918,Wunderground v.1.15,2013-05-05 17:59:00,
2013-05-05 14:04:00,63.2,36.5,30.24,NE,45,4.0,4.0,37,0.00,,,0.00,909,Wunderground v.1.15,2013-05-05 18:04:00,
2013-05-05 14:09:00,63.4,36.0,30.24,East,99,4.0,5.0,36,0.00,,,0.00,904,Wunderground v.1.15,2013-05-05 18:09:00,
2013-05-05 14:14:00,63.6,34.7,30.24,East,86,3.0,7.0,34,0.00,,,0.00,896,Wunderground v.1.15,2013-05-05 18:14:00,
2013-05-05 14:19:00,63.7,34.0,30.24,ESE,121,3.0,7.0,33,0.00,,,0.00,888,Wunderground v.1.15,2013-05-05 18:19:00,
2013-05-05 14:29:00,63.9,36.4,30.24,ENE,76,4.0,4.0,36,0.00,,,0.00,879,Wunderground v.1.15,2013-05-05 18:29:00,
2013-05-05 14:39:00,64.3,36.8,30.23,East,98,3.0,4.0,36,0.00,,,0.00,856,Wunderground v.1.15,2013-05-05 18:39:00,
2013-05-05 14:49:00,64.1,36.6,30.23,SE,142,3.0,5.0,36,0.00,,,0.00,842,Wunderground v.1.15,2013-05-05 18:49:00,
2013-05-05 14:54:00,63.0,36.3,30.23,SE,140,2.0,2.0,37,0.00,,,0.00,837,Wunderground v.1.15,2013-05-05 18:54:00,
2013-05-05 14:59:00,63.5,36.0,30.23,SSE,163,2.0,7.0,36,0.00,,,0.00,824,Wunderground v.1.15,2013-05-05 18:59:00,
2013-05-05 15:04:00,63.9,35.0,30.23,NE,34,4.0,4.0,34,0.00,,,0.00,817,Wunderground v.1.15,2013-05-05 19:04:00,
2013-05-05 15:09:00,63.7,36.9,30.23,ESE,116,4.0,4.0,37,0.00,,,0.00,805,Wunderground v.1.15,2013-05-05 19:09:00,
2013-05-05 15:14:00,64.2,35.2,30.23,ESE,104,3.0,4.0,34,0.00,,,0.00,796,Wunderground v.1.15,2013-05-05 19:14:00,
2013-05-05 15:19:00,64.9,35.8,30.22,SSE,167,3.0,4.0,34,0.00,,,0.00,786,Wunderground v.1.15,2013-05-05 19:19:00,
2013-05-05 15:24:00,65.3,36.9,30.22,SE,135,3.0,5.0,35,0.00,,,0.00,773,Wunderground v.1.15,2013-05-05 19:24:00,
2013-05-05 15:29:00,64.2,36.7,30.22,NE,45,4.0,5.0,36,0.00,,,0.00,765,Wunderground v.1.15,2013-05-05 19:29:00,
2013-05-05 15:34:00,65.2,38.3,30.21,ESE,102,4.0,4.0,37,0.00,,,0.00,749,Wunderground v.1.15,2013-05-05 19:34:00,
2013-05-05 15:39:00,64.5,36.9,30.21,NNE,26,4.0,4.0,36,0.00,,,0.00,733,Wunderground v.1.15,2013-05-05 19:39:00,
2013-05-05 15:44:00,64.8,38.6,30.21,NE,47,4.0,6.0,38,0.00,,,0.00,724,Wunderground v.1.15,2013-05-05 19:44:00,
2013-05-05 15:49:00,64.6,36.3,30.21,ENE,71,4.0,6.0,35,0.00,,,0.00,712,Wunderground v.1.15,2013-05-05 19:49:00,
2013-05-05 15:54:00,64.6,39.1,30.21,ENE,63,2.0,2.0,39,0.00,,,0.00,698,Wunderground v.1.15,2013-05-05 19:54:00,
2013-05-05 16:04:00,65.0,38.8,30.21,NE,47,3.0,4.0,38,0.00,,,0.00,671,Wunderground v.1.15,2013-05-05 20:04:00,
2013-05-05 16:14:00,65.0,38.1,30.21,NNE,13,3.0,7.0,37,0.00,,,0.00,647,Wunderground v.1.15,2013-05-05 20:14:00,
2013-05-05 16:24:00,64.3,36.0,30.21,ESE,114,3.0,3.0,35,0.00,,,0.00,617,Wunderground v.1.15,2013-05-05 20:24:00,
2013-05-05 16:29:00,64.2,37.4,30.21,NE,55,3.0,3.0,37,0.00,,,0.00,599,Wunderground v.1.15,2013-05-05 20:29:00,
2013-05-05 16:34:00,64.7,37.1,30.21,East,84,3.0,3.0,36,0.00,,,0.00,573,Wunderground v.1.15,2013-05-05 20:34:00,
2013-05-05 16:44:00,64.8,37.9,30.21,NE,40,3.0,3.0,37,0.00,,,0.00,279,Wunderground v.1.15,2013-05-05 20:44:00,
2013-05-05 16:49:00,64.6,39.1,30.21,East,83,3.0,5.0,39,0.00,,,0.00,139,Wunderground v.1.15,2013-05-05 20:49:00,
2013-05-05 16:54:00,63.8,37.0,30.20,ESE,121,3.0,4.0,37,0.00,,,0.00,149,Wunderground v.1.15,2013-05-05 20:54:00,
2013-05-05 16:59:00,63.3,37.9,30.20,SE,129,3.0,4.0,39,0.00,,,0.00,70,Wunderground v.1.15,2013-05-05 20:59:00,
2013-05-05 17:04:00,63.6,38.8,30.20,South,173,2.0,2.0,40,0.00,,,0.00,165,Wunderground v.1.15,2013-05-05 21:04:00,
2013-05-05 17:09:00,63.8,37.0,30.20,ESE,116,3.0,5.0,37,0.00,,,0.00,255,Wunderground v.1.15,2013-05-05 21:09:00,
2013-05-05 17:14:00,63.2,37.2,30.20,East,80,3.0,3.0,38,0.00,,,0.00,105,Wunderground v.1.15,2013-05-05 21:14:00,
2013-05-05 17:19:00,63.0,37.6,30.20,SE,126,3.0,6.0,39,0.00,,,0.00,67,Wunderground v.1.15,2013-05-05 21:19:00,
2013-05-05 17:24:00,62.9,39.4,30.20,SE,126,4.0,4.0,42,0.00,,,0.00,74,Wunderground v.1.15,2013-05-05 21:24:00,
2013-05-05 17:34:00,62.3,37.7,30.20,ESE,102,2.0,2.0,40,0.00,,,0.00,54,Wunderground v.1.15,2013-05-05 21:34:00,
2013-05-05 17:39:00,62.2,37.6,30.20,SE,139,3.0,3.0,40,0.00,,,0.00,70,Wunderground v.1.15,2013-05-05 21:39:00,
2013-05-05 17:44:00,62.1,37.5,30.20,SE,143,3.0,3.0,40,0.00,,,0.00,54,Wunderground v.1.15,2013-05-05 21:44:00,
2013-05-05 17:49:00,62.1,38.7,30.20,SE,126,3.0,3.0,42,0.00,,,0.00,47,Wunderground v.1.15,2013-05-05 21:49:00,
2013-05-05 17:54:00,61.9,37.9,30.20,ESE,119,3.0,7.0,41,0.00,,,0.00,35,Wunderground v.1.15,2013-05-05 21:54:00,
2013-05-05 17:59:00,61.8,38.4,30.20,ESE,121,2.0,7.0,42,0.00,,,0.00,35,Wunderground v.1.15,2013-05-05 21:59:00,
2013-05-05 18:04:00,61.4,38.7,30.20,SE,144,2.0,2.0,43,0.00,,,0.00,37,Wunderground v.1.15,2013-05-05 22:04:00,
2013-05-05 18:14:00,61.1,40.7,30.20,SSE,157,3.0,3.0,47,0.00,,,0.00,33,Wunderground v.1.15,2013-05-05 22:14:00,
2013-05-05 18:24:00,59.3,43.6,30.20,South,169,3.0,3.0,56,0.00,,,0.00,33,Wunderground v.1.15,2013-05-05 22:24:00,
2013-05-05 18:29:00,58.6,44.3,30.20,South,169,2.0,3.0,59,0.00,,,0.00,30,Wunderground v.1.15,2013-05-05 22:29:00,
2013-05-05 18:34:00,58.1,44.3,30.20,SSE,154,2.0,2.0,60,0.00,,,0.00,30,Wunderground v.1.15,2013-05-05 22:34:00,
2013-05-05 18:39:00,57.6,44.2,30.20,South,176,3.0,3.0,61,0.00,,,0.00,28,Wunderground v.1.15,2013-05-05 22:39:00,
2013-05-05 18:44:00,56.9,44.0,30.21,South,175,3.0,3.0,62,0.00,,,0.00,26,Wunderground v.1.15,2013-05-05 22:44:00,
2013-05-05 18:54:00,56.0,43.6,30.21,South,188,4.0,4.0,63,0.00,,,0.00,25,Wunderground v.1.15,2013-05-05 22:54:00,
2013-05-05 18:59:00,55.6,43.6,30.21,SSE,165,3.0,4.0,64,0.00,,,0.00,23,Wunderground v.1.15,2013-05-05 22:59:00,
2013-05-05 19:04:00,55.1,43.9,30.21,South,187,3.0,3.0,66,0.00,,,0.00,23,Wunderground v.1.15,2013-05-05 23:04:00,
2013-05-05 19:09:00,54.7,43.6,30.21,South,169,3.0,3.0,66,0.00,,,0.00,21,Wunderground v.1.15,2013-05-05 23:09:00,
2013-05-05 19:19:00,53.8,43.1,30.21,South,179,2.0,3.0,67,0.00,,,0.00,18,Wunderground v.1.15,2013-05-05 23:19:00,
2013-05-05 19:29:00,52.7,42.8,30.22,SSW,198,2.0,2.0,69,0.00,,,0.00,16,Wunderground v.1.15,2013-05-05 23:29:00,
2013-05-05 19:34:00,52.1,42.6,30.22,South,187,2.0,2.0,70,0.00,,,0.00,14,Wunderground v.1.15,2013-05-05 23:34:00,
2013-05-05 19:44:00,51.0,42.3,30.22,South,186,1.0,1.0,72,0.00,,,0.00,9,Wunderground v.1.15,2013-05-05 23:44:00,
2013-05-05 19:54:00,50.0,42.0,30.23,South,186,1.0,1.0,74,0.00,,,0.00,5,Wunderground v.1.15,2013-05-05 23:54:00,
2013-05-05 19:59:00,49.5,41.6,30.23,SSW,202,1.0,1.0,74,0.00,,,0.00,0,Wunderground v.1.15,2013-05-05 23:59:00,
2013-05-05 20:04:00,49.3,41.7,30.23,SSW,196,1.0,2.0,75,0.00,,,0.00,0,Wunderground v.1.15,2013-05-06 00:04:00,
2013-05-05 20:09:00,49.2,41.6,30.23,South,180,1.0,2.0,75,0.00,,,0.00,0,Wunderground v.1.15,2013-05-06 00:09:00,
2013-05-05 20:14:00,48.7,41.5,30.23,South,180,1.0,1.0,76,0.00,,,0.00,0,Wunderground v.1.15,2013-05-06 00:14:00,
2013-05-05 20:19:00,48.1,41.2,30.23,South,178,0.0,1.0,77,0.00,,,0.00,0,Wunderground v.1.15,2013-05-06 00:19:00,
2013-05-05 20:24:00,47.8,40.9,30.23,South,190,0.0,1.0,77,0.00,,,0.00,0,Wunderground v.1.15,2013-05-06 00:24:00,
2013-05-05 20:34:00,47.5,41.0,30.24,South,172,2.0,2.0,78,0.00,,,0.00,0,Wunderground v.1.15,2013-05-06 00:34:00,
2013-05-05 20:39:00,47.1,40.9,30.24,South,172,1.0,2.0,79,0.00,,,0.00,0,Wunderground v.1.15,2013-05-06 00:39:00,
2013-05-05 20:44:00,46.8,40.6,30.24,South,177,1.0,2.0,79,0.00,,,0.00,0,Wunderground v.1.15,2013-05-06 00:44:00,
2013-05-05 20:49:00,46.6,41.1,30.25,South,170,2.0,2.0,81,0.00,,,0.00,0,Wunderground v.1.15,2013-05-06 00:49:00,
2013-05-05 20:54:00,46.3,40.8,30.25,South,186,2.0,2.0,81,0.00,,,0.00,0,Wunderground v.1.15,2013-05-06 00:54:00,
2013-05-05 20:59:00,46.0,40.5,30.25,South,189,2.0,2.0,81,0.00,,,0.00,0,Wunderground v.1.15,2013-05-06 00:59:00,
2013-05-05 21:04:00,45.7,40.5,30.25,SSW,192,1.0,1.0,82,0.00,,,0.00,0,Wunderground v.1.15,2013-05-06 01:04:00,
2013-05-05 21:09:00,45.3,40.1,30.25,South,190,1.0,1.0,82,0.00,,,0.00,0,Wunderground v.1.15,2013-05-06 01:09:00,
2013-05-05 21:14:00,45.1,40.2,30.26,South,190,0.0,1.0,83,0.00,,,0.00,0,Wunderground v.1.15,2013-05-06 01:14:00,
2013-05-05 21:24:00,44.7,40.2,30.26,South,190,0.0,0.0,84,0.00,,,0.00,0,Wunderground v.1.15,2013-05-06 01:24:00,
2013-05-05 21:29:00,44.3,39.8,30.26,South,190,0.0,0.0,84,0.00,,,0.00,0,Wunderground v.1.15,2013-05-06 01:29:00,
2013-05-05 21:34:00,44.0,39.8,30.26,South,190,0.0,0.0,85,0.00,,,0.00,0,Wunderground v.1.15,2013-05-06 01:34:00,
2013-05-05 21:39:00,43.7,39.5,30.26,South,190,0.0,0.0,85,0.00,,,0.00,0,Wunderground v.1.15,2013-05-06 01:39:00,
2013-05-05 21:44:00,43.6,39.7,30.26,South,190,0.0,0.0,86,0.00,,,0.00,0,Wunderground v.1.15,2013-05-06 01:44:00,
2013-05-05 21:49:00,43.5,39.9,30.26,South,188,0.0,1.0,87,0.00,,,0.00,0,Wunderground v.1.15,2013-05-06 01:49:00,
2013-05-05 21:54:00,43.3,39.4,30.26,South,188,0.0,0.0,86,0.00,,,0.00,0,Wunderground v.1.15,2013-05-06 01:54:00,
2013-05-05 21:59:00,43.1,39.5,30.26,South,186,0.0,0.0,87,0.00,,,0.00,0,Wunderground v.1.15,2013-05-06 01:59:00,
2013-05-05 22:09:00,42.8,39.2,30.26,South,186,0.0,0.0,87,0.00,,,0.00,0,Wunderground v.1.15,2013-05-06 02:09:00,
2013-05-05 22:14:00,42.7,39.4,30.26,South,186,0.0,0.0,88,0.00,,,0.00,0,Wunderground v.1.15,2013-05-06 02:14:00,
2013-05-05 22:19:00,42.7,39.4,30.26,South,186,0.0,0.0,88,0.00,,,0.00,0,Wunderground v.1.15,2013-05-06 02:19:00,
2013-05-05 22:29:00,42.4,39.4,30.26,South,186,0.0,0.0,89,0.00,,,0.00,0,Wunderground v.1.15,2013-05-06 02:29:00,
2013-05-05 22:39:00,42.0,39.0,30.26,South,186,0.0,0.0,89,0.00,,,0.00,0,Wunderground v.1.15,2013-05-06 02:39:00,
2013-05-05 22:44:00,41.9,39.2,30.26,South,186,0.0,0.0,90,0.00,,,0.00,0,Wunderground v.1.15,2013-05-06 02:44:00,
2013-05-05 22:54:00,41.6,38.9,30.25,South,186,0.0,0.0,90,0.00,,,0.00,0,Wunderground v.1.15,2013-05-06 02:54:00,
2013-05-05 23:04:00,41.5,39.1,30.25,South,186,0.0,0.0,91,0.00,,,0.00,0,Wunderground v.1.15,2013-05-06 03:04:00,
2013-05-05 23:09:00,41.4,39.0,30.25,South,186,0.0,0.0,91,0.00,,,0.00,0,Wunderground v.1.15,2013-05-06 03:09:00,
2013-05-05 23:14:00,41.3,38.9,30.25,South,186,0.0,0.0,91,0.00,,,0.00,0,Wunderground v.1.15,2013-05-06 03:14:00,
2013-05-05 23:24:00,41.1,39.0,30.25,South,186,0.0,0.0,92,0.00,,,0.00,0,Wunderground v.1.15,2013-05-06 03:24:00,
2013-05-05 23:29:00,41.1,39.0,30.25,South,186,0.0,0.0,92,0.00,,,0.00,0,Wunderground v.1.15,2013-05-06 03:29:00,
2013-05-05 23:39:00,40.7,38.6,30.25,South,186,0.0,0.0,92,0.00,,,0.00,0,Wunderground v.1.15,2013-05-06 03:39:00,
2013-05-05 23:44:00,40.6,38.7,30.25,South,186,0.0,0.0,93,0.00,,,0.00,0,Wunderground v.1.15,2013-05-06 03:44:00,
2013-05-05 23:49:00,40.7,39.1,30.26,South,186,0.0,0.0,94,0.00,,,0.00,0,Wunderground v.1.15,2013-05-06 03:49:00,
2013-05-05 23:59:00,40.6,39.0,30.25,South,186,0.0,0.0,94,0.00,,,0.00,0,Wunderground v.1.15,2013-05-06 03:59:00,